Weather History for KPKB - January, 2013

Change the Weather History Date:

Monday, January 21, 2013

  Actual Average Record
Temperature  
Mean Temperature 22 °F 31 °F  
Max Temperature 31 °F 40 °F 74 °F (1906)
Min Temperature 13 °F 23 °F -20 °F (1985)
Degree Days  
Heating Degree Days 43 34  
Month to date heating degree days 592 707  
Since 1 July heating degree days 2499 2617  
Cooling Degree Days 0 0  
Month to date cooling degree days 0 0  
Year to date cooling degree days 0 0  
Moisture  
Dew Point 13 °F    
Average Humidity 56    
Maximum Humidity 63    
Minimum Humidity 49    
Precipitation  
Precipitation T in 0.10 in 0.54 in (2012)
Month to date precipitation 1.31 1.99  
Year to date precipitation 1.31 1.99  
Sea Level Pressure  
Sea Level Pressure 30.09 in    
Wind  
Wind Speed 9 mph (West)    
Max Wind Speed 23 mph    
Max Gust Speed 31 mph    
Visibility 8 miles    
Events Snow    
T = Trace of Precipitation, MM = Missing Value Source: NWS Daily Summary

Daily Weather History Graph

Daily Weather History Graph

Search for Another Location

Airport or City:

Trip Planner

Search our weather history database for the weather conditions in past years. The results will help you decide how hot, cold, wet, or windy it might be!

Date:

Astronomy

Jan. 21, 2013 Rise Set
Actual Time 7:40 AM EST 5:33 PM EST
Civil Twilight 7:11 AM EST 6:02 PM EST
Nautical Twilight 6:39 AM EST 6:35 PM EST
Astronomical Twilight 6:07 AM EST 7:07 PM EST
Moon 1:12 PM EST (1/21) 3:07 AM EST (1/21)
Length of Visible Light 10h 50m
Length of Day
9h 52m
Waxing Gibbous, 75% of the Moon is Illuminated
Jan 21
Waxing Gibbous
Jan 26
Full
Feb 3
Last Quarter
Feb 10
New
Feb 17
First Quarter

Hourly Weather History & Observations

Time (EST) Temp. Windchill Dew Point Humidity Pressure Visibility Wind Dir Wind Speed Gust Speed Precip Events Conditions
12:53 AM 27.0 °F 21.6 °F 14.0 °F 58% 30.18 in 10.0 mi WNW 4.6 mph - N/A   Overcast
1:53 AM 27.0 °F - 12.9 °F 56% 30.17 in 10.0 mi Calm Calm - N/A   Overcast
2:53 AM 26.1 °F - 12.9 °F 58% 30.17 in 10.0 mi Calm Calm - N/A   Overcast
3:53 AM 26.1 °F - 12.0 °F 55% 30.14 in 10.0 mi Calm Calm - N/A   Overcast
4:53 AM 26.1 °F - 15.1 °F 63% 30.13 in 10.0 mi Calm Calm - N/A   Overcast
5:53 AM 26.1 °F - 12.0 °F 55% 30.12 in 10.0 mi Calm Calm - N/A   Overcast
7:53 AM 27.0 °F 20.5 °F 12.0 °F 53% 30.10 in 10.0 mi WSW 5.8 mph - N/A   Overcast
8:53 AM 27.0 °F 21.6 °F 12.9 °F 56% 30.09 in 10.0 mi Variable 4.6 mph - N/A   Overcast
9:53 AM 28.0 °F 20.0 °F 12.9 °F 53% 30.09 in 10.0 mi SW 8.1 mph - N/A   Clear
10:53 AM 28.9 °F 19.2 °F 12.9 °F 51% 30.08 in 10.0 mi West 11.5 mph 18.4 mph N/A   Overcast
11:53 AM 30.0 °F 19.5 °F 14.0 °F 51% 30.04 in 10.0 mi WSW 13.8 mph 19.6 mph N/A   Overcast
12:53 PM 28.9 °F 17.3 °F 15.1 °F 56% 30.04 in 10.0 mi West 16.1 mph 27.6 mph N/A   Overcast
1:38 PM 28.4 °F 16.6 °F 17.6 °F 64% 30.00 in 3.0 mi West 16.1 mph 20.7 mph 0.00 in Snow Light Snow
1:49 PM 26.6 °F 14.3 °F 17.6 °F 69% 30.00 in 1.5 mi West 16.1 mph 21.9 mph 0.00 in Snow Light Snow
1:53 PM 27.0 °F 16.1 °F 18.0 °F 69% 30.04 in 1.2 mi West 12.7 mph 21.9 mph 0.00 in Snow Light Snow
2:02 PM 26.6 °F 15.2 °F 17.6 °F 69% 30.01 in 3.0 mi WSW 13.8 mph 20.7 mph 0.00 in Snow Light Snow
2:12 PM 26.6 °F 16.8 °F 17.6 °F 69% 30.01 in 1.8 mi West 10.4 mph 23.0 mph 0.00 in Snow Light Snow
2:18 PM 28.4 °F 21.2 °F 17.6 °F 64% 30.01 in 3.0 mi West 6.9 mph - 0.00 in Snow Light Snow
2:38 PM 28.4 °F 19.1 °F 14.0 °F 55% 30.01 in 9.0 mi WSW 10.4 mph 20.7 mph 0.00 in   Overcast
2:53 PM 28.0 °F 17.0 °F 12.9 °F 53% 30.05 in 10.0 mi West 13.8 mph 19.6 mph 0.00 in   Overcast
3:53 PM 28.0 °F 18.1 °F 12.0 °F 51% 30.05 in 10.0 mi West 11.5 mph 21.9 mph N/A   Overcast
4:30 PM 24.8 °F 11.9 °F 17.6 °F 74% 30.05 in 1.5 mi West 16.1 mph 25.3 mph 0.00 in Snow Light Snow
4:38 PM 24.8 °F 12.9 °F 17.6 °F 74% 30.05 in 0.5 mi West 13.8 mph 28.8 mph 0.00 in Snow Snow
4:51 PM 23.0 °F 11.1 °F 15.8 °F 74% 30.05 in 2.5 mi West 12.7 mph 26.5 mph 0.00 in Snow Light Snow
4:53 PM 23.0 °F 11.7 °F 16.0 °F 74% 30.09 in 5.0 mi West 11.5 mph 23.0 mph 0.00 in Snow Light Snow
5:53 PM 23.0 °F 11.1 °F 12.0 °F 63% 30.10 in 10.0 mi West 12.7 mph 26.5 mph 0.00 in   Overcast
6:53 PM 21.0 °F 6.6 °F 8.1 °F 57% 30.13 in 10.0 mi West 17.3 mph 25.3 mph N/A   Scattered Clouds
7:53 PM 19.9 °F 6.7 °F 6.1 °F 55% 30.14 in 10.0 mi WNW 13.8 mph 19.6 mph N/A   Partly Cloudy
8:53 PM 18.0 °F 4.2 °F 3.0 °F 52% 30.17 in 10.0 mi West 13.8 mph 20.7 mph N/A   Partly Cloudy
9:53 PM 16.0 °F 2.9 °F 1.0 °F 52% 30.19 in 10.0 mi West 11.5 mph 21.9 mph N/A   Clear
10:53 PM 15.1 °F 3.3 °F 1.0 °F 54% 30.21 in 10.0 mi West 9.2 mph 20.7 mph N/A   Partly Cloudy
11:53 PM 12.9 °F -2.8 °F -0.0 °F 56% 30.22 in 10.0 mi West 15.0 mph 28.8 mph N/A   Clear